Regional Weather Roundup
Issued by NWS Binghamton, NY

Home | Current Version | Previous Version | Text Only | Print | Product List | Glossary On
Versions: 1 2 3 4 5 6 7 8 9 10 11 12 13 14 15 16 17 18 19 20 21 22 23 24 25 26 27
000
ASUS41 KBGM 260910
RWRBGM

REGIONAL WEATHER ROUNDUP
NATIONAL WEATHER SERVICE BINGHAMTON NY
500 AM EDT THU MAY 26 2016

Note: "fair" indicates few or no clouds below 12,000 feet with no
significant weather and/or obstructions to visibility.

* = Station(s) that does not report precipitation, such as rain,
snow, etc, also no thunder or fog.

NYZ009-015>018-022>025-036-037-044>046-055>057-062-261000
...Central New York...

CITY           SKY/WX    TMP DP  RH WIND       PRES   REMARKS
Binghamton     CLOUDY    59  52  77 CALM      30.12R
Cortland       FAIR      54  54 100 CALM      30.11S
Dansville      PTCLDY    58  52  80 SE8       30.10R
Elmira         PTCLDY    53  50  89 CALM      30.11R FOG
Ithaca         PTCLDY    57  53  86 E7        30.11R
Hamilton       CLEAR     57  55  94 CALM      30.11S
Hornell        MOCLDY    54  52  94 S3        30.15S
Monticello     CLOUDY    55  52  88 CALM      30.14S
Oneonta        CLEAR     59  52  77 CALM      30.13S
Penn Yan       CLOUDY    61  53  75 SW7       30.09S
Rome           CLOUDY    57  54  89 CALM      30.08S
Sidney         CLOUDY    55  55 100 CALM      30.13R
Syracuse       CLOUDY    60  55  83 CALM      30.05S
$$

PAZ038>040-043-044-047-048-072-261000
...Northeast Pennsylvania...

CITY           SKY/WX    TMP DP  RH WIND       PRES   REMARKS
Hazleton       PTCLDY    55  50  82 CALM      30.17S
Scranton       CLEAR     57  51  80 SE3       30.11S
$$
&&
KEY
WCI = Wind Chill Index
VSB = Visibility
HX  = Heat Index
$$




USA.gov is the U.S. government's official web portal to all federal, state and local government web resources and services.